PHASE 3B (AO-10) 1 14129U 83058B 21018.42569830 -.00000254 00000-0 00000-0 0 9992 2 14129 25.7839 179.6717 6066738 302.3714 12.7330 2.05870448254833 UOSAT 2 (UO-11) 1 14781U 84021B 21018.76718940 .00000073 00000-0 15019-4 0 9990 2 14781 97.5899 26.0106 0007714 204.5158 155.5691 14.83238261963748 LUSAT (LO-19) 1 20442U 90005G 21018.85349131 .00000013 00000-0 21136-4 0 9993 2 20442 98.7220 333.1272 0010771 238.7213 121.2916 14.32973686619406 EYESAT A (AO-27) 1 22825U 93061C 21019.00488172 -.00000016 00000-0 11994-4 0 9997 2 22825 98.9243 32.8945 0009426 107.9060 252.3150 14.30103824424892 ITAMSAT (IO-26) 1 22826U 93061D 21018.59090439 -.00000015 00000-0 11954-4 0 9991 2 22826 98.9184 32.3936 0009990 98.0547 262.1768 14.30441350424802 RADIO ROSTO (RS-15) 1 23439U 94085A 21019.17149084 -.00000037 00000-0 15882-3 0 9992 2 23439 64.8175 257.3946 0156103 2.0748 358.0795 11.27570113 73507 JAS-2 (FO-29) 1 24278U 96046B 21018.86173894 .00000000 00000-0 35070-4 0 9995 2 24278 98.5843 106.5602 0350488 176.9822 183.3548 13.53102029206012 TECHSAT 1B (GO-32) 1 25397U 98043D 21018.85226873 .00000004 00000-0 21238-4 0 9997 2 25397 98.7547 324.9573 0001943 125.1190 235.0171 14.23699513170209 ISS (ZARYA) 1 25544U 98067A 21019.26407080 .00000787 00000-0 22186-4 0 9995 2 25544 51.6466 359.3118 0000279 283.9595 183.5470 15.49302228265512 PCSAT (NO-44) 1 26931U 01043C 21018.84796330 -.00000014 00000-0 26399-4 0 9990 2 26931 67.0524 306.5337 0007409 271.7543 88.2709 14.30603091 7843 SAUDISAT 1C (SO-50) 1 27607U 02058C 21019.14620054 .00000010 00000-0 21797-4 0 9993 2 27607 64.5558 74.8938 0029351 87.6369 272.8094 14.75703661972689 CUTE-1 (CO-55) 1 27844U 03031E 21018.77473998 .00000037 00000-0 36446-4 0 9995 2 27844 98.6817 29.2481 0010418 147.3255 212.8570 14.22282705910708 CUBESAT XI-IV (CO-57) 1 27848U 03031J 21018.72358163 .00000027 00000-0 32235-4 0 9991 2 27848 98.6879 29.7658 0010087 159.6221 200.5361 14.21863411910533 MOZHAYETS 4 (RS-22) 1 27939U 03042A 21019.14101225 .00000154 00000-0 36192-4 0 9993 2 27939 98.1177 157.5010 0013537 37.5642 322.6501 14.66934157925630 CUBESAT XI-V 1 28895U 05043F 21019.07651024 .00000130 00000-0 33820-4 0 9996 2 28895 98.0359 155.7939 0015880 324.5016 35.5128 14.63854922812380 CUTE-1.7+APD II (CO-65) 1 32785U 08021C 21018.84499325 .00000251 00000-0 32486-4 0 9997 2 32785 97.5949 3.6534 0014003 134.5029 225.7336 14.88613183689917 DELFI-C3 (DO-64) 1 32789U 08021G 21019.11910954 .00001367 00000-0 91720-4 0 9993 2 32789 97.3947 60.1471 0010451 298.9001 61.1179 15.08400319694419 SEEDS II (CO-66) 1 32791U 08021J 21018.94010166 .00000211 00000-0 26550-4 0 9998 2 32791 97.5576 9.7843 0014719 102.9251 257.3613 14.91249413690578 YUBILEINY (RS-30) 1 32953U 08025A 21019.01191941 .00000028 00000-0 12906-3 0 9997 2 32953 82.5049 143.8771 0018547 303.5066 56.4239 12.43099415574419 KKS-1 (KISEKI) 1 33499U 09002H 21018.88695722 .00000097 00000-0 22190-4 0 9992 2 33499 98.2890 245.3226 0009599 151.2557 208.9182 14.75607860644354 SWISSCUBE 1 35932U 09051B 21018.80069741 .00000115 00000-0 36857-4 0 9994 2 35932 98.6067 214.0395 0007536 179.0861 181.0351 14.56477546601170 BEESAT-1 1 35933U 09051C 21019.04738300 .00000095 00000-0 32403-4 0 9996 2 35933 98.6044 216.1498 0005511 188.7878 171.3224 14.56542899601365 ITUPSAT1 1 35935U 09051E 21019.16907511 .00000080 00000-0 29577-4 0 9995 2 35935 98.6150 216.4418 0007829 191.6435 168.4582 14.55681005601081 XIWANG-1 (HOPE-1) 1 36122U 09072B 21019.18151671 -.00000035 00000-0 18630-4 0 9996 2 36122 100.1133 6.1487 0008180 87.2677 272.9373 13.16358605533254 JUGNU 1 37839U 11058B 21019.20946865 .00000418 00000-0 80769-4 0 9995 2 37839 19.9626 54.3120 0018672 246.8319 171.4490 14.12701668479447 SRMSAT 1 37841U 11058D 21018.60104863 .00000301 00000-0 19995-4 0 9999 2 37841 19.9715 126.7789 0011995 87.1317 301.3466 14.10683282478679 M-CUBED & EXP-1 PRIME 1 37855U 11061F 21019.14325517 .00001044 00000-0 58220-4 0 9998 2 37855 101.7265 225.1099 0168591 154.5749 206.3879 15.07097504504153 STRAND-1 1 39090U 13009E 21019.13981851 .00000024 00000-0 23454-4 0 9991 2 39090 98.4366 224.7533 0009308 10.0942 350.0429 14.35164391413649 SOMP 1 39134U 13015E 21018.85301417 .00001315 00000-0 66448-4 0 9993 2 39134 64.8632 298.7049 0012341 219.6585 140.3642 15.21886134428448 BEESAT-3 1 39135U 13015F 21018.28052108 .00001030 00000-0 58674-4 0 9997 2 39135 64.8682 327.3413 0017545 208.0963 151.9219 15.18835651428229 BEESAT-2 1 39136U 13015G 21018.28231771 .00001080 00000-0 61837-4 0 9993 2 39136 64.8743 333.1197 0029229 263.3872 96.3927 15.18212688428112 ZACUBE-1 (TSHEPISOSAT) 1 39417U 13066B 21018.70882863 .00000236 00000-0 35941-4 0 9991 2 39417 97.5794 10.9223 0057341 292.7200 66.7959 14.81410715386906 GOMX-1 1 39430U 13066Q 21019.08337045 .00000133 00000-0 33392-4 0 9999 2 39430 97.8091 310.7774 0149534 225.0635 133.8358 14.59522549381259 CUBEBUG-2 (LO-74) 1 39440U 13066AA 21018.85509917 .00000299 00000-0 48252-4 0 9997 2 39440 97.6574 355.7623 0080078 2.0482 358.1040 14.76142832384352 FUNCUBE-1 (AO-73) 1 39444U 13066AE 21018.71594766 .00000281 00000-0 40699-4 0 9990 2 39444 97.5718 13.2561 0056356 283.6317 75.8625 14.82295195385258 UWE-3 1 39446U 13066AG 21018.88093872 .00000270 00000-0 42272-4 0 9999 2 39446 97.6203 2.8591 0069050 328.1688 31.5359 14.78678536384406 SPROUT 1 39770U 14029E 21019.08564906 .00000836 00000-0 96804-4 0 9991 2 39770 97.9063 130.6454 0008674 346.2752 13.8225 14.88132189361128 UNISAT-6 1 40012U 14033C 21018.84414439 .00000178 00000-0 33520-4 0 9990 2 40012 97.6867 229.0060 0058799 25.3793 335.0284 14.74227968354151 DUCHIFAT-1 1 40021U 14033M 21019.10528573 .00000621 00000-0 68372-4 0 9991 2 40021 97.9605 317.8561 0011681 300.7256 59.2811 14.91149025358026 QB50P1 1 40025U 14033R 21018.73464727 .00000325 00000-0 40284-4 0 9996 2 40025 97.9264 309.1142 0011461 316.4766 43.5546 14.89307337357137 NUDT-PHONESAT 1 40900U 15049B 21019.05447762 .00002250 00000-0 92085-4 0 9997 2 40900 97.4254 34.2219 0010915 311.5329 114.0686 15.25321255296045 ZDPS 2A 1 40901U 15049C 21019.07333951 .00001264 00000-0 63685-4 0 9992 2 40901 97.4626 28.0135 0012884 349.8260 83.1599 15.18940100295295 ZDPS 2B 1 40902U 15049D 21019.05515813 .00001370 00000-0 68753-4 0 9999 2 40902 97.4641 25.2790 0012796 347.2455 85.4046 15.18955859295265 XW-2A 1 40903U 15049E 21019.11550769 .00001965 00000-0 44595-4 0 9994 2 40903 97.2590 73.9715 0012207 191.2412 220.8429 15.44228179299745 KAITUO 1A 1 40904U 15049F 21019.05176742 .00000589 00000-0 34106-4 0 9991 2 40904 97.4821 22.9220 0014621 2.5836 69.7142 15.15967909294900 2015-049G 1 40905U 15049G 21019.03745755 .00000429 00000-0 26645-4 0 9998 2 40905 97.4938 20.0281 0015535 0.8306 72.0904 15.14794956294715 XW-2C 1 40906U 15049H 21019.04832116 .00000764 00000-0 42696-4 0 9994 2 40906 97.4825 23.3307 0014347 353.0205 79.7404 15.16432921294922 XW-2D 1 40907U 15049J 21019.07183895 .00000711 00000-0 39642-4 0 9990 2 40907 97.4812 23.1033 0013706 349.9393 80.6773 15.16711637294950 LILACSAT-2 1 40908U 15049K 21019.07887586 .00000225 00000-0 15886-4 0 9993 2 40908 97.4987 21.1667 0015916 2.5090 68.2704 15.14255025294628 XW-2F 1 40910U 15049M 21019.08366771 .00000972 00000-0 50337-4 0 9994 2 40910 97.4712 26.0007 0013847 336.9205 93.3942 15.18525568295059 XW-2B 1 40911U 15049N 21019.06674455 .00000813 00000-0 44942-4 0 9993 2 40911 97.4814 23.7937 0013703 350.8791 80.3727 15.16633434294848 KAITUO 1B 1 40912U 15049P 21018.99433175 .00001269 00000-0 60294-4 0 9991 2 40912 97.4464 30.2298 0013219 310.0476 101.6470 15.20997333295471 TIANWANG 1C (TW-1C) 1 40926U 15051B 21019.13358222 .00118177 00000-0 40964-3 0 9993 2 40926 97.0491 80.1995 0001872 332.7520 84.0265 15.89155900300938 TIANWANG 1A (TW-1A) 1 40928U 15051D 21019.04898252 .00002943 00000-0 65653-4 0 9993 2 40928 97.0910 47.5848 0011640 115.3755 297.0254 15.44284850298623 LAPAN-A2 1 40931U 15052B 21019.07664422 .00000758 00000-0 16426-4 0 9997 2 40931 5.9990 237.7337 0013018 86.8884 273.2718 14.76659761287186 E-ST@R-II 1 41459U 16025D 21019.08880923 .00003181 00000-0 15980-3 0 9997 2 41459 98.1203 146.6882 0162658 205.4540 153.8616 15.07280476259917 AAUSAT 4 1 41460U 16025E 21019.07303303 .00003838 00000-0 18462-3 0 9997 2 41460 98.1213 149.8419 0150569 191.4884 168.2871 15.09991155260161 NUSAT-1 (FRESCO) 1 41557U 16033B 21019.06679166 .00001267 00000-0 47872-4 0 9997 2 41557 97.3982 113.9254 0014404 50.0372 51.3835 15.28778486258700 BEESAT-4 1 41619U 16040W 21018.67421328 .00001513 00000-0 63736-4 0 9996 2 41619 97.2924 78.8514 0012059 134.9968 225.2249 15.24803106242189 CAS-2T & KS-1Q 1 41847U 16066G 21019.17114689 .00000016 00000-0 13719-4 0 9995 2 41847 98.6249 77.5164 0364470 305.9622 50.8265 14.38136867220428 NAYIF-1 (EO-88) 1 42017U 17008BX 21019.16342580 .00001314 00000-0 51731-4 0 9992 2 42017 97.3359 89.3705 0004457 280.6530 79.4207 15.27377094218463 ZHUHAI-1 02 (CAS-4B) 1 42759U 17034B 21019.08670816 .00000118 00000-0 20535-4 0 9990 2 42759 43.0178 282.1453 0011000 306.0189 196.5278 15.10044366198563 ZHUHAI-1 01 (CAS-4A) 1 42761U 17034D 21019.08564505 .00000168 00000-0 23500-4 0 9990 2 42761 43.0183 281.3080 0011414 307.5668 194.0335 15.10125483198563 MAX VALIER SAT 1 42778U 17036P 21019.13107438 .00000716 00000-0 33193-4 0 9992 2 42778 97.2775 72.4964 0011517 350.9084 9.1943 15.23143981198554 RADFXSAT (FOX-1B) 1 43017U 17073E 21018.72386967 .00000618 00000-0 52497-4 0 9999 2 43017 97.7171 288.5818 0257255 68.8534 293.9963 14.79259468170980 FOX-1D (AO-92) 1 43137U 18004AC 21019.18739143 .00000876 00000-0 38271-4 0 9996 2 43137 97.4241 94.6778 0009501 26.9434 333.2295 15.24723583167901 DIWATA-2B 1 43678U 18084H 21019.07156970 -.00000186 00000-0 -12734-4 0 9995 2 43678 97.9048 143.7863 0010008 176.1228 184.0040 14.91696647121166 ES'HAIL 2 1 43700U 18090A 21019.12140172 .00000147 00000-0 00000+0 0 9994 2 43700 0.0181 67.4442 0001630 272.5456 208.1902 1.00271861 8112 FOX-1CLIFF (AO-95) 1 43770U 18099N 21018.74979334 .00000718 00000-0 70488-4 0 9993 2 43770 97.6838 92.1240 0014285 192.1944 167.8933 14.95172306116083 ITASAT 1 1 43786U 18099AE 21018.83324409 .00000078 00000-0 12238-4 0 9995 2 43786 97.6857 92.7795 0014987 185.5815 174.5241 14.95487999116123 JY1SAT (JO-97) 1 43803U 18099AX 21019.15465429 .00000621 00000-0 60866-4 0 9993 2 43803 97.6818 92.8678 0015055 184.2194 175.8903 14.95702031116175 PSAT2 (NO-104) 1 44354U 19036R 21018.73180123 .00007714 00000-0 10397-3 0 9998 2 44354 28.5287 41.8920 0343561 98.1817 265.7884 15.08930104 86302 BRICSAT2 (NO-103) 1 44355U 19036S 21018.31782078 .00015164 00000-0 18495-3 0 9995 2 44355 28.5287 19.7995 0302338 134.1144 228.4742 15.19598746 86482 JAISAT-1 1 44419U 19038F 21019.09284793 .00000829 00000-0 50034-4 0 9993 2 44419 97.5688 344.5868 0022799 105.9289 254.4457 15.13302232 85206 DUCHIFAT-3 1 44854U 19089C 21019.02515490 .00000379 00000-0 36900-4 0 9992 2 44854 36.9657 264.1892 0008829 358.5667 1.5051 14.99296732 60664 RS-44 & BREEZE-KM R/B 1 44909U 19096E 21019.06470563 .00000006 00000-0 -30048-4 0 9991 2 44909 82.5193 212.0496 0218356 82.4511 280.1335 12.79708239 49762 ORBITAL FACTORY 2 (OF-2) 1 45113U 19071C 21018.42455089 .00001967 00000-0 68940-4 0 9995 2 45113 51.6432 44.3019 0012918 110.3657 249.8714 15.34603124 54128 HUSKYSAT-1 1 45119U 19071J 21018.76856709 .00001754 00000-0 62498-4 0 9998 2 45119 51.6442 42.0979 0012238 108.3691 251.8623 15.34725522 54179 BY70-2 1 45857U 20042B 21019.17980743 .00000977 00000-0 14709-3 0 9996 2 45857 97.9978 96.4460 0009918 340.0553 20.0286 14.76629521 29514 SALSAT 1 46495U 20068K 21018.90572919 .00001023 00000-0 79752-4 0 9998 2 46495 97.6801 317.4182 0016154 217.3198 142.6907 15.03322076 16864 BY70-3 1 46839U 20079N 21019.11660074 .00001865 00000-0 61508-4 0 9990 2 46839 97.2578 95.9267 0008022 34.2675 52.2135 15.32658867 11323 OSCAR 7 (AO-7) 1 07530U 74089B 21019.17118505 -.00000028 00000-0 10791-3 0 9996 2 07530 101.8340 353.9559 0012118 310.1879 61.2143 12.53646992113262